Regional Weather Roundup
Issued by NWS

Home | Current Version | Previous Version | Graphics & Text | Print | Product List | Glossary On
Versions: 1 2 3 4 5 6 7 8 9 10 11 12 13 14 15 16 17 18 19 20 21 22 23 24 25 26 27 28 29 30 31 32 33 34 35 36 37 38 39 40 41 42 43 44 45 46 47 48 49 50
000
ASUS45 KTFX 190219
RWRMT
MONTANA HOURLY WEATHER ROUNDUP
NATIONAL WEATHER SERVICE GREAT FALLS MT
819 PM MDT THU SEP 18 2014

NOTE: "FAIR" INDICATES FEW OR NO CLOUDS BELOW 12000 FEET WITH NO
SIGNIFICANT WEATHER AND/OR OBSTRUCTIONS TO VISIBILITY.

* THESE STATIONS ARE NOT UNDER NWS QUALITY CONTROL. THEY DO NOT
   REPORT WEATHER SUCH AS PRECIPITATION OR FOG.

MTZ001>007-043-190300-
WEST OF THE DIVIDE
CITY           SKY/WX    TMP DP  RH WIND       PRES   REMARKS
KALISPELL      MOCLDY    70  41  35 W9        29.73R
MISSOULA       MOCLDY    73  39  29 W13       29.80R
BUTTE          PTCLDY    63  46  54 S8        29.88R
MULLAN PASS    CLOUDY    54  41  62 SW9       29.93R
* ESSEX        N/A       62  46  56 W3         N/A
* LINCOLN      N/A       69  42  38 SW3G11     N/A
* LOOKOUT PASS N/A       61  43  52 SE6G13     N/A
* POLSON       N/A       66  40  39 S1G6       N/A
* RONAN APT    MOCLDY    73  43  34 SW7        N/A
* SEELEY LAKE  N/A       71  38  30 W5G12      N/A
* THOMP F APT  PTCLDY    61  47  60 N4G12      N/A
$$

MTZ008-052>055-190300-
SOUTHWEST MONTANA
CITY           SKY/WX    TMP DP  RH WIND       PRES   REMARKS
BOZEMAN        MOCLDY    61  54  78 E6        29.83F
DILLON         PTCLDY    61  46  58 SW5       29.86S
W YELLOWSTONE  CLOUDY    55  48  77 CALM      30.00R
* THREE FORKS  PTCLDY    70  70 100 N/A        N/A
* BOULDER HILL N/A       62  46  56 S4         N/A
* MONIDA PASS  N/A       60  54  81 SW2        N/A
* RAYNOLDS PAS N/A       56  33  42 S2         N/A
* WHITEHALL    N/A       69  49  49 SW7G13     N/A
* WISE RIVER   N/A       64  36  35 W6G16      N/A
$$

MTZ009>010-012-014-046-048-049-054-190300-
EAST SLOPES AND CENTRAL MONTANA
CITY           SKY/WX    TMP DP  RH WIND       PRES   REMARKS
CUT BANK       PTCLDY    61  41  48 W12       29.71R
GREAT FALLS    HAZE      66  46  49 SW12      29.71R
HELENA         PTCLDY    68  55  63 CALM      29.76R
* CONRAD       PTCLDY    68  46  45 W10G20     N/A
* EAST GLACIER N/A       61  39  44 NW7G14     N/A
* MONARCH      N/A       62  39  43 SW9        N/A
* PENDROY      N/A       66  42  42 W14G19     N/A
* ROGERS PASS  N/A       65  39  39 SE10G15    N/A
* SAINT MARY   N/A       65  38  37 S8G16      N/A
* SWEET GRASS  N/A       68  37  32 W13G23     N/A
* WHITE SULPH  N/A       62  51  67 S7G17      N/A
$$

MTZ011-013-016-021-035-040-045-047-050-051-190300-
NORTH CENTRAL MONTANA
CITY           SKY/WX    TMP DP  RH WIND       PRES   REMARKS
HAVRE          CLEAR     72  48  43 SW16      29.59S
LEWISTOWN      PTCLDY    63  52  68 SW13      29.75S
* CHINOOK      PTCLDY    68  48  49 CALM      29.60R
* CHESTER      N/A       73  40  30 W13G22     N/A
* DENTON       N/A       65  51  61 S9         N/A
* GEYSER       N/A       61  46  58 SW8        N/A
* JUDITH GAP   N/A       64  54  70 NE9        N/A
* LOMA         N/A       78  46  32 SW17G22    N/A
$$

MTZ017>020-022>027-061-062-190300-
NORTHEAST MONTANA
CITY           SKY/WX    TMP DP  RH WIND       PRES   REMARKS
GLASGOW        CLOUDY    66  54  65 SE7       29.59S
GLENDIVE       CLOUDY    70  55  59 SW8       29.67R
JORDAN         CLOUDY    64  57  78 CALM      29.65R
SIDNEY         CLOUDY    66  55  68 CALM      29.62S
WOLF POINT     CLOUDY    64  55  73 NE5       29.59F
* BEAVER HILL  N/A       70  53  55 S11        N/A
* CIRCLE       N/A       68  55  63 N/A        N/A
* LINDSAY DVD  N/A       68  53  59 S1G6       N/A
* NAVAJO       N/A       69  51  53 W12        N/A
* SACO         N/A       70  53  55 SW2        N/A
$$

MTZ028>042-056>058-190300-
SOUTHCENTRAL AND SOUTHEAST MONTANA
CITY           SKY/WX    TMP DP  RH WIND       PRES   REMARKS
BAKER          CLOUDY    66  52  61 S8        29.71F
BILLINGS       CLOUDY    64  55  73 SW15      29.79F
LIVINGSTON     MOCLDY    64  50  61 W16G23    29.83R
MILES CITY     CLOUDY    72  54  53 SW5       29.70R
* LAUREL APT   CLOUDY    61  54  78 N/A        N/A
* ROUNDUP APT  CLOUDY    68  55  63 S5         N/A
* ALZADA       N/A       74  56  54 N8         N/A
* HYSHAM       N/A       68  51  55 S8G20      N/A
* LAME DEER    N/A       70  49  47 W15        N/A
* REED POINT   N/A       61  55  81 S2         N/A
* ROSCOE HILL  N/A       60  48  65 S9G14      N/A
$$

REGIONAL REPORTS...DAKOTAS
CITY           SKY/WX    TMP DP  RH WIND       PRES   REMARKS
WILLISTON      CLOUDY    70  54  57 S6        29.59S
DICKINSON      CLOUDY    70  61  73 S13       29.67S
BEACH          N/A       64  54  70 S9        29.68F
CROSBY         CLEAR     64  55  73 SW9       29.57R
TIOGA          CLEAR     72  50  46 SW12      29.62S
WATFORD CITY   CLEAR     64  50  61 S8        29.59F
BISMARCK       CLOUDY    72  63  73 E12       29.65F
GRAND FORKS    CLOUDY    68  61  78 S13       29.71S
FARGO          CLOUDY    72  55  55 S15G25    29.77R
BUFFALO SD     MOCLDY    73  59  62 SE9       29.67F
RAPID CITY     CLOUDY    73  54  51 SE6       29.72S
$$

REGIONAL REPORTS...WYOMING/IDAHO/WASHINGTON
CITY           SKY/WX    TMP DP  RH WIND       PRES   REMARKS
GILLETTE       CLOUDY    61  50  67 CALM      29.81R
SHERIDAN       CLOUDY    70  52  53 NW13      29.85R
CODY           CLOUDY   N/A N/A N/A N/A        N/A
YELLOWSTONE LA CLOUDY    52  50  93 VRB3      30.12R
SALMON         MOCLDY    63  50  63 SW5       29.80R
MULLAN PASS    CLOUDY    54  41  62 SW9       29.93S
SAND POINT     CLOUDY    63  54  73 CALM      29.74R
SPOKANE        MOCLDY    72  46  40 SW15      29.76R
$$

REGIONAL REPORTS...ALBERTA
CITY           SKY/WX    TMP DP  RH WIND       PRES   REMARKS
CALGARY        MOCLDY    59  50  72 N5        29.64R
LETHBRIDGE     MOCLDY    68  43  40 W22G30    29.65R
MEDICINE HAT   CLOUDY    73  43  34 W15G22    29.54R
EDMONTON       MOCLDY    57  48  72 S6        29.58S
WATERTON GATE  N/A       63  41  45 SW16G36    N/A
CARDSTON       N/A       64  43  47 W6         N/A
MILK RIVER     N/A       59  43  56 W7         N/A
$$

REGIONAL REPORTS...SASKATCHEWAN
CITY           SKY/WX    TMP DP  RH WIND       PRES   REMARKS
SWIFT CURRENT  HAZE      64  48  56 SW13      29.53R
REGINA         MOCLDY    68  55  63 W8        29.49S
VAL MARIE      N/A       61  52  72 SW7        N/A
ASSINIBOIA     N/A       64  50  61 SW10       N/A
CORONACH       N/A       64  52  65 W3         N/A

$$



USA.gov is the U.S. government's official web portal to all federal, state and local government web resources and services.